This is the latest recevied weather packets stored in our database for station/object N5PRN. If no packets are shown the sender has not sent any weather packets the latest 10 day(s).
| Time | Temp. | Humidity | Pressure | Rain* | Wind** | Luminosity | Snow |
|---|---|---|---|---|---|---|---|
| 1777381914 | 23.33° C | 94% | 1015.4 hPa | 0 mm | - | 115 W/m² | - |
| 1777381613 | 23.33° C | 94% | 1015.1 hPa | 0 mm | - | 137 W/m² | - |
| 1777381309 | 23.33° C | 94% | 1015.5 hPa | 0 mm | - | 127 W/m² | - |
| 1777381007 | 23.33° C | 95% | 1015.1 hPa | 0 mm | - | 84 W/m² | - |
| 1777380703 | 22.78° C | 95% | 1015.2 hPa | 0 mm | - | 52 W/m² | - |
| 1777380399 | 22.78° C | 95% | 1015.1 hPa | 0 mm | - | 35 W/m² | - |
| 1777380095 | 22.78° C | 95% | 1014.9 hPa | 0 mm | - | 37 W/m² | - |
| 1777379792 | 22.78° C | 95% | 1015 hPa | 0 mm | - | 58 W/m² | - |
| 1777379486 | 22.78° C | 95% | 1014.7 hPa | 0 mm | - | 63 W/m² | - |
| 1777379182 | 22.78° C | 95% | 1014.6 hPa | 0 mm | - | 70 W/m² | - |
| 1777378877 | 22.78° C | 95% | 1014.7 hPa | 0 mm | - | 29 W/m² | - |
| 1777378574 | 22.78° C | 95% | 1014.7 hPa | 0 mm | - | 27 W/m² | - |
| 1777378270 | 22.78° C | 95% | 1014.8 hPa | 0 mm | - | 27 W/m² | - |
| 1777377968 | 22.78° C | 95% | 1014.6 hPa | 0 mm | - | 27 W/m² | - |
| 1777377663 | 22.78° C | 95% | 1014.9 hPa | 0 mm | - | 31 W/m² | - |
| 1777377358 | 22.78° C | 95% | 1014.6 hPa | 0 mm | - | 29 W/m² | - |
| 1777377055 | 22.78° C | 95% | 1014.5 hPa | 0 mm | - | 19 W/m² | - |
| 1777376752 | 22.78° C | 95% | 1014.5 hPa | 0 mm | - | 15 W/m² | - |
| 1777376450 | 22.78° C | 95% | 1014.4 hPa | 0 mm | - | 8 W/m² | - |
| 1777376144 | 22.78° C | 95% | 1014.4 hPa | 0 mm | - | 5 W/m² | - |
| 1777375839 | 22.78° C | 95% | 1014.3 hPa | 0 mm | - | 2 W/m² | - |
| 1777375533 | 22.78° C | 95% | 1014.3 hPa | 0 mm | - | 0 W/m² | - |
| 1777375224 | 22.78° C | 95% | 1014.4 hPa | 0 mm | - | 0 W/m² | - |
| 1777374920 | 22.78° C | 95% | 1014.2 hPa | 0 mm | - | 0 W/m² | - |
| 1777374616 | 22.78° C | 95% | 1014.2 hPa | 0 mm | - | 0 W/m² | - |
* Rain latest hour (hover to see other rain measurements)
** Current wind speed in m/s (hover to see current wind gust speed)